Location: Waco, TX
(31.5480°N, 97.1670°W)
Time: 02:33:58
(UTC-06:00)

ISS - Pass Details

Date: 17 November 2018
Orbit: 401 x 408 km, 51.6° (Epoch: 20 November)

Event Time Altitude Azimuth Distance (km) Brightness Sun altitude
Rises 22:04:47 0° 271° (W) 2,304 - -58.5°
Reaches altitude 10° 22:08:02 10° 306° (NW) 1,449 - -59.2°
Maximum altitude 22:09:14 12° 328° (NNW) 1,358 - -59.4°
Drops below altitude 10° 22:10:27 10° 350° (N) 1,451 - -59.7°
Sets 22:13:42 0° 25° (NNE) 2,313 - -60.3°
